RH
8 8 8 8 7 6 6 6 6 7 9 9 9 9 9 12 25 42 58 58 57 56 65 72 67 53 44 34 15 14 14 14 14
10 10 9 9 9 9 9 9 8 8 8 9 8 8 8 9 9 9 12 23 37 47 66 64 65 73 68 56 41 26 14 14 13
11 11 10 10 9 6 4 4 4 4 5 5 5 7 9 10 10 9 9 9 10 35 47 64 66 60 66 73 72 57 39 16 15
8 8 5 4 3 3 4 5 5 6 6 6 7 8 7 7 7 8 10 11 10 10 18 20 34 65 64 67 74 75 74 52 19
3 3 3 3 4 5 6 6 7 7 8 10 11 11 10 10 10 9 9 9 9 9 11 43 30 24 33 44 50 67 76 77 62
3 3 4 5 6 7 8 8 9 10 12 12 10 9 9 9 9 9 8 8 8 9 10 10 43 82 54 54 41 40 55 72 78
4 5 5 6 7 9 9 10 11 12 12 10 9 8 8 8 7 7 7 8 8 8 10 11 12 13 29 66 75 59 49 57 74
6 7 7 9 10 10 10 11 11 11 11 10 10 9 8 8 8 8 9 9 9 9 9 10 11 12 13 14 42 71 66 61 66
8 10 11 11 11 10 10 10 10 10 10 10 9 9 9 8 8 9 9 9 10 10 11 11 12 15 18 19 18 28 70 71 68
11 12 11 10 9 8 8 8 8 7 7 7 8 8 8 8 9 9 9 10 10 12 15 18 19 18 19 22 25 26 29 74 76
11 10 8 6 6 6 7 8 8 8 9 9 9 9 9 9 9 9 9 10 12 18 19 20 20 21 23 27 30 30 31 36 85
10 8 7 8 8 8 7 7 8 10 11 11 11 12 13 13 12 11 10 12 20 24 25 27 33 32 29 30 27 30 38 32 35
9 9 10 9 9 8 7 8 11 15 24 32 34 35 36 34 21 12 13 16 28 29 37 48 40 38 36 34 36 32 33 36 31
10 10 9 9 8 8 8 9 10 12 26 37 42 42 40 38 20 13 16 22 35 36 47 55 60 69 68 58 44 45 44 38 34
9 9 10 11 14 17 21 22 18 13 13 29 29 36 39 36 23 14 16 23 38 41 54 63 73 68 76 54 46 44 39 38 35
14 18 22 24 25 22 20 19 22 20 13 17 22 33 37 36 28 16 15 23 36 45 52 58 66 68 60 56 71 81 80 77 49
18 22 27 33 36 36 34 20 17 20 19 17 19 28 32 35 33 26 17 21 30 46 67 60 82 78 92 64 96 99 98 90 73
19 20 20 20 23 30 31 32 21 17 18 18 19 21 26 33 35 30 20 20 26 41 58 66 73 92 78 76 75 90 99 98 85
36 36 36 35 34 33 31 29 24 20 19 20 20 20 21 21 23 34 23 20 24 26 42 68 66 98 99 85 88 99 100 92 97
29 24 23 26 28 27 25 23 21 19 18 18 19 23 26 27 23 22 34 22 19 22 29 51 66 73 86 89 71 73 98 100 100
Wind_Speed
19 18 17 17 17 17 17 18 18 18 19 21 21 21 21 22 21 19 18 20 18 16 17 16 16 16 16 16 16 17 18 19 19
16 15 14 13 12 12 12 12 13 14 15 17 18 20 21 22 22 22 22 22 20 21 18 20 19 19 19 20 19 17 20 21 21
12 10 9 8 8 8 10 11 12 14 14 15 15 16 17 18 19 20 22 22 22 22 23 23 23 23 22 22 22 21 20 21 23
11 9 8 9 10 10 11 12 14 15 15 14 14 15 16 16 17 19 19 20 21 22 25 25 26 26 26 26 25 25 24 23 23
14 12 11 10 10 10 12 13 14 14 15 16 17 17 18 17 17 18 19 19 21 21 22 24 27 29 30 30 30 29 28 27 25
14 14 13 10 10 10 12 14 14 15 16 18 18 17 16 16 16 17 20 21 21 23 25 28 27 28 28 31 32 33 34 31 30
13 12 12 13 11 11 13 15 15 16 17 16 17 16 16 16 17 18 21 22 24 26 27 30 33 34 34 33 35 36 37 36 34
13 12 11 11 13 13 14 16 16 16 17 17 16 16 17 17 17 19 21 22 26 29 31 32 35 37 38 39 39 38 41 40 38
13 11 11 12 14 16 16 17 17 17 17 18 17 17 18 18 19 20 22 24 26 30 32 34 37 39 42 42 43 45 43 45 42
12 12 13 15 16 17 18 17 17 18 18 19 18 18 19 19 20 21 22 24 26 28 31 35 38 40 44 47 48 47 50 47 46
13 14 16 16 16 16 17 17 17 17 18 19 18 18 19 19 20 20 21 23 25 29 29 29 32 35 40 43 45 47 47 53 44
13 14 14 15 17 18 18 18 19 19 18 19 19 18 19 20 20 20 21 22 23 23 23 25 28 32 36 40 43 41 43 50 55
13 14 15 17 18 19 20 20 20 20 19 19 18 18 18 18 19 20 20 21 21 21 21 22 25 28 30 31 34 39 39 47 57
16 17 19 20 21 22 22 22 23 22 19 18 18 18 18 17 18 18 19 20 21 20 18 22 23 24 32 28 26 28 33 39 53
19 20 21 21 22 23 23 23 24 24 21 18 19 18 18 17 18 17 19 18 19 19 17 20 22 23 32 14 13 11 14 27 39
19 20 21 21 21 22 22 22 22 23 23 19 18 20 18 16 17 18 18 16 16 16 17 19 20 22 22 12 8 6 4 8 17
21 21 22 22 22 23 23 23 22 22 23 21 20 16 16 14 16 19 19 17 15 13 16 16 16 21 20 10 20 14 6 6 8
22 23 24 24 25 25 24 24 23 21 21 22 20 17 15 14 15 19 21 19 16 13 12 12 14 15 14 13 15 9 8 2 6
22 23 23 24 24 24 23 23 22 22 21 20 21 20 19 18 13 11 18 20 20 16 12 11 9 9 6 10 10 11 9 4 4
24 24 24 24 24 23 23 22 22 22 21 21 20 19 19 21 22 17 12 15 20 21 10 13 9 10 10 12 7 10 5 7 5
Wind_Direction
303 298 294 291 288 286 285 284 283 281 279 277 277 275 273 272 273 275 276 278 279 274 273 271 273 275 276 279 272 260 254 252 251
308 302 297 297 297 297 295 294 291 289 286 283 282 280 278 277 275 275 272 271 274 275 270 270 271 271 273 273 273 270 259 255 253
312 310 308 305 304 302 301 298 295 293 292 291 290 288 285 284 281 277 275 275 271 268 269 266 267 266 266 268 271 272 269 260 253
305 301 299 301 297 297 298 298 297 296 294 295 296 296 293 289 286 285 283 282 278 276 274 273 270 268 266 265 265 266 267 266 261
305 299 296 296 296 299 302 302 301 299 296 293 292 292 289 289 289 291 289 289 288 283 279 273 271 267 267 266 264 263 262 262 260
301 300 297 296 300 304 307 307 304 299 297 297 294 288 285 287 289 289 288 289 286 281 277 272 266 264 265 263 262 261 258 257 258
301 301 301 303 308 312 312 308 304 302 300 297 293 292 291 289 291 292 290 289 287 283 278 274 272 269 262 255 255 255 256 253 252
309 306 306 308 311 312 309 306 305 302 297 294 295 297 296 295 295 293 290 289 288 286 283 280 276 274 268 260 251 252 252 250 249
314 314 316 315 313 311 310 309 308 303 300 298 298 300 299 299 297 295 292 288 286 285 283 280 278 276 273 268 260 248 249 248 245
312 314 315 316 315 312 310 311 310 307 305 303 302 303 302 301 297 293 290 289 288 288 288 286 283 279 275 271 266 256 244 246 243
313 316 317 317 316 314 314 313 312 310 309 306 306 305 301 298 295 295 295 294 297 299 298 298 292 285 278 273 268 263 251 241 240
308 309 310 312 313 315 313 313 312 312 309 306 305 303 302 301 304 302 299 299 307 312 312 305 302 288 279 273 269 265 254 238 234
305 307 308 309 310 310 311 310 311 313 314 312 311 310 309 308 306 304 305 312 321 325 320 322 309 302 299 288 274 263 254 238 229
310 310 309 309 311 310 310 310 310 310 311 316 315 315 315 313 308 309 312 320 328 328 335 330 324 325 321 303 291 275 257 241 232
314 313 313 313 313 312 311 311 308 306 305 310 318 317 317 317 308 310 309 319 330 327 336 340 338 341 356 346 319 316 289 253 239
318 318 318 320 320 319 317 315 312 307 304 303 313 313 314 314 310 307 304 315 324 327 330 340 344 352 13 2 4 1 350 277 253
313 311 310 312 316 321 323 322 318 314 311 309 310 308 307 306 311 305 308 308 316 324 332 343 352 353 10 352 4 353 19 209 208
313 309 307 306 306 308 310 315 317 315 315 316 317 317 313 311 311 302 299 314 312 322 319 334 327 334 6 339 354 355 12 190 177
316 313 311 309 309 308 306 306 309 310 313 313 314 315 315 315 306 293 297 303 306 312 321 313 323 338 340 7 357 350 34 100 124
317 314 311 309 308 308 307 306 307 309 310 310 309 309 311 310 310 308 292 294 301 304 309 302 292 280 306 324 358 315 308 115 161